Regional Weather Roundup
Issued by NWS Green Bay, WI

Home | Current Version | Previous Version | Graphics & Text | Print | Product List | Glossary Off
Versions: 1 2 3 4 5 6 7 8 9 10 11 12 13 14 15 16 17 18 19 20 21 22 23 24 25 26 27 28 29 30 31 32 33 34 35 36 37 38 39 40 41 42 43 44 45 46 47 48 49 50

000
ASUS43 KGRB 292111
RWRGRB

NORTH-CENTRAL AND NORTHEAST WISCONSIN REGIONAL WEATHER ROUNDUP
NATIONAL WEATHER SERVICE GREEN BAY WI
400 PM CDT WED MAR 29 2017

WIZ005-009-010>012-018-019-292200-
NORTH CENTRAL WISCONSIN

CITY           SKY/WX    TMP DP  RH WIND       PRES   REMARKS
IRONWOOD       CLOUDY    49  30  48 E9        30.23F
MANITOWISH WTR CLOUDY    47  29  49 E6        30.24F
ARBOR VITAE    CLOUDY    49  31  49 SE6       30.23F
EAGLE RIVER    CLOUDY    47  26  45 SE6       30.25F
LAND O LAKES   CLOUDY    47  28  48 E6        30.27F
RHINELANDER    CLOUDY    48  30  49 SE9       30.25F
PHILLIPS       CLOUDY    49  31  49 SE6       30.22F
ANTIGO         CLOUDY    43  31  62 E9        30.25F
TOMAHAWK       CLOUDY    46  30  53 SE5       30.24F
MERRILL        CLOUDY    46  31  54 SE10      30.24F
$$

WIZ013-073-292200-
NORTHEAST WISCONSIN

CITY           SKY/WX    TMP DP  RH WIND       PRES   REMARKS
IRON MOUNTAIN  CLOUDY    46  25  43 NE6       30.28F
MARINETTE      CLOUDY    39  29  67 E7        30.33F
OCONTO         CLOUDY    40  29  64 NE8G16    30.30F
$$

WIZ017-030-035>037-045-292200-
CENTRAL WISCONSIN

CITY           SKY/WX    TMP DP  RH WIND       PRES   REMARKS
MEDFORD        CLOUDY    45  31  58 E9        30.21F
WAUSAU         CLOUDY    46  29  51 SE9       30.22F
MOSINEE        CLOUDY    45  30  57 E10       30.24F
MARSHFIELD     CLOUDY    45  31  58 E12       30.21F
WISC RAPIDS    CLOUDY    46  33  60 E12       30.24F
STEVENS POINT  CLOUDY    43  29  58 E10       30.25F
WAUPACA        CLOUDY    47  33  58 NE10      30.26F
SHAWANO        CLOUDY    46  32  59 E8        30.29F
CLINTONVILLE   CLOUDY    45  28  53 E12       30.27F
WAUTOMA        CLOUDY    45  36  70 NE13      30.24F
$$

WIZ038-039-048-051-292200-
FOX VALLEY

CITY           SKY/WX    TMP DP  RH WIND       PRES   REMARKS
NWS GREEN BAY  CLOUDY    40  34  79 NE10      30.30F
APPLETON       CLOUDY    43  30  61 NE12G17   30.26F
OSHKOSH        CLOUDY    43  30  60 E10       30.25F
FOND DU LAC    CLOUDY    46  36  68 E10       30.24F
$$

WIZ022-050-052-292200-
EAST CENTRAL WISCONSIN

CITY           SKY/WX    TMP DP  RH WIND       PRES   REMARKS
EPHRAIM        FAIR      39  27  63 NE8       30.31F
WASHINGTON ISL FAIR      39  26  58 NE5       30.33F
STURGEON BAY   PTSUNNY   41  27  57 NE13      30.27F
MANITOWOC      CLOUDY    39  33  79 N6        30.29F
SHEBOYGAN      CLOUDY    39  33  79 NE13      30.26F
$$

LMZ563-521-522-541>543-292200-
LAKESHORE

STATION/POSITION TIME  TEMP    WIND        PRES    VSBY  WAVE
                       AIR SEA DIR/SP/G                  HT/PER
                 (UTC) (F)     (DEG/KT/KT) (MB)    (MI)  (FT/S)
SHEBOYGAN LKSHOR 2100   35      10/ 15/ 16 1025.2F
KEWAUNEE LKSHORE 2048   35      30/  9/ 15 1025.6F
NORTHPORT PIER   2040   35        CALM     1027.1F
CHAMBERS ISLAND  2040   37      50/  7/  9 1026.8F
MENOMINEE LKSHOR 2048   34      10/  7/ 10 1026.0F
$$



USA.gov is the U.S. government's official web portal to all federal, state and local government web resources and services.